Temp
61 61 61 60 60 60 60 60 60 60 60 60 61 61 61 61 60 67 65 73 73 68 65 79 80 81 83 82 82 84 71 70 74 74 77 85 81 90 92 87 92 92 91 95 94
61 60 60 60 60 60 60 60 60 60 60 60 60 60 60 60 64 66 75 69 66 68 78 78 76 79 78 78 79 76 71 73 81 80 78 84 83 85 85 85 87 90 92 92 94
60 60 60 60 60 60 60 60 60 60 60 60 60 59 60 63 64 75 73 70 67 69 83 84 83 80 76 79 77 76 71 79 75 79 81 80 82 85 82 80 87 86 90 92 92
60 60 60 60 60 60 59 60 60 60 61 60 60 59 60 66 61 79 69 68 67 78 82 79 79 74 73 70 79 69 75 78 78 80 78 77 82 80 82 84 92 91 91 91 90
60 60 60 59 59 59 59 59 60 60 60 60 59 59 62 61 68 80 68 70 76 79 79 77 75 76 71 75 74 70 76 77 79 80 79 80 77 78 80 86 90 91 91 89 91
59 59 59 59 59 59 59 58 58 59 59 59 59 59 61 56 82 81 79 76 79 78 79 81 77 79 75 73 72 75 76 76 77 78 78 75 77 79 81 85 84 85 86 89 90
58 58 58 59 59 58 58 58 58 58 59 60 59 61 58 66 80 82 81 78 81 79 76 81 80 76 76 70 76 73 68 74 76 77 75 78 70 72 82 84 80 84 86 89 90
58 58 58 58 58 58 58 58 58 58 59 60 60 59 59 78 81 76 80 76 78 80 80 82 81 78 75 76 72 70 70 66 77 78 77 74 65 78 83 82 79 83 85 86 86
58 57 58 58 58 58 58 57 58 59 59 60 58 59 62 70 69 78 80 74 76 78 79 80 79 73 73 69 66 68 64 66 69 78 75 72 68 79 84 82 79 82 85 85 85
58 57 57 57 57 57 56 56 59 59 60 62 63 52 66 69 76 77 81 78 73 74 72 71 70 67 70 68 59 63 63 66 65 73 73 71 70 78 82 80 80 82 84 85 86
58 57 57 56 57 56 57 62 57 51 54 61 64 67 71 78 79 75 78 75 75 70 64 69 64 60 66 69 71 67 64 63 70 75 71 70 72 76 80 80 79 81 83 85 86
57 57 57 56 56 56 58 57 65 67 59 65 66 68 75 78 69 72 79 69 67 62 69 63 60 70 72 71 67 66 63 64 70 73 70 71 70 76 79 79 80 81 84 85 87
57 57 57 56 56 58 57 61 73 71 59 66 72 66 70 73 69 68 74 73 66 64 65 63 67 71 68 65 63 64 63 64 65 70 73 70 67 72 77 80 81 83 86 87 86
56 56 56 55 58 66 62 71 75 70 54 62 60 66 70 71 64 78 77 74 69 65 66 67 73 67 66 63 66 59 70 67 65 64 60 71 59 69 74 75 78 81 83 85 87
56 56 55 55 53 57 68 73 73 68 39 65 65 77 73 68 73 70 78 75 66 66 68 62 65 65 63 64 68 63 71 68 67 65 64 66 61 68 73 71 76 78 82 86 88
55 55 55 55 63 64 71 70 67 49 38 60 67 63 63 67 71 74 71 77 76 69 69 67 74 72 69 71 71 72 67 67 68 66 55 63 63 66 70 71 74 78 79 79 81
55 55 55 57 58 72 71 61 49 43 62 59 60 65 64 63 66 66 64 62 60 55 56 63 66 71 73 66 71 68 62 53 51 53 52 65 61 65 71 75 77 78 78 79 80
54 53 61 66 69 65 65 55 41 54 57 65 61 63 58 65 65 65 62 60 66 64 60 55 52 65 71 67 64 63 62 55 45 49 55 63 56 67 75 75 77 78 79 78 78
52 65 66 69 67 65 55 46 49 56 64 59 59 55 50 51 63 63 62 61 65 67 56 56 56 71 71 72 71 64 58 68 58 59 55 60 65 70 73 72 74 75 75 75 77
57 61 64 68 64 59 51 46 56 64 66 61 51 57 49 48 46 57 61 66 64 69 71 63 54 66 69 73 71 67 71 55 59 44 45 56 59 63 67 69 73 72 74 75 76
58 55 64 64 60 50 48 53 58 66 66 60 56 53 49 44 46 46 59 64 69 68 70 67 62 58 66 62 62 62 61 62 61 58 47 47 53 71 69 72 72 74 75 74 75
54 49 67 66 47 50 52 57 55 62 67 64 62 58 52 49 44 45 54 62 65 71 62 67 61 52 57 65 66 68 64 63 53 50 57 55 53 69 70 73 75 75 75 76 77
47 54 70 61 43 41 51 54 55 54 54 56 58 59 58 52 42 42 50 60 63 68 64 66 57 48 51 59 62 61 64 65 61 59 49 45 51 67 70 71 74 73 73 72 72
49 45 60 54 53 48 48 48 50 55 53 56 55 57 53 49 53 46 44 54 60 63 59 64 57 53 47 51 58 55 59 62 61 52 54 57 59 62 66 67 69 69 70 69 68
49 47 51 42 49 51 52 51 46 41 50 53 50 52 50 41 44 46 44 46 53 54 59 61 52 53 54 53 53 51 56 60 57 59 52 58 58 64 67 68 69 69 69 68 67
42 41 42 40 51 50 50 48 45 44 42 43 42 48 52 46 44 40 43 48 47 49 50 57 51 53 46 54 54 51 59 60 59 59 59 60 58 68 71 71 69 67 67 66 66
50 51 41 41 44 44 48 46 49 52 49 47 47 44 46 47 52 52 51 50 57 51 49 49 53 50 45 54 54 49 57 58 60 62 60 55 62 69 65 66 66 65 66 65 64
MSLP
1020.96 1020.62 1020.31 1020.02 1019.68 1019.36 1019.06 1018.79 1018.53 1018.26 1017.96 1017.69 1017.44 1017.13 1016.80 1016.55 1016.16 1015.22 1013.54 1012.02 1011.81 1012.52 1012.72 1011.63 1011.25 1010.90 1010.52 1009.42 1009.44 1008.83 1007.19 1004.98 1004.32 1004.45 1004.47 1004.77 1005.08 1004.57 1004.52 1004.70 1004.05 1004.00 1004.21 1004.26 1004.77
1020.75 1020.43 1020.14 1019.79 1019.41 1019.05 1018.71 1018.43 1018.13 1017.91 1017.70 1017.46 1017.26 1017.01 1016.69 1016.25 1015.19 1012.68 1010.91 1011.89 1012.25 1012.09 1011.34 1010.60 1010.25 1010.13 1009.42 1009.06 1008.95 1008.21 1006.65 1005.30 1005.06 1005.08 1005.32 1005.03 1005.15 1004.73 1004.55 1004.24 1003.98 1003.95 1004.39 1004.82 1004.84
1020.51 1020.18 1019.82 1019.49 1019.13 1018.82 1018.49 1018.12 1017.79 1017.51 1017.27 1017.11 1016.93 1016.79 1016.52 1016.06 1013.83 1009.50 1009.81 1010.81 1011.97 1011.86 1010.41 1009.86 1009.63 1009.47 1008.65 1008.35 1008.05 1007.48 1006.34 1005.65 1006.41 1006.54 1006.29 1005.71 1005.16 1005.43 1004.92 1004.27 1004.18 1004.11 1003.97 1004.59 1004.80
1020.06 1019.70 1019.43 1019.14 1018.83 1018.48 1018.11 1017.87 1017.52 1017.19 1016.88 1016.72 1016.63 1016.53 1016.28 1015.27 1011.43 1009.15 1009.77 1010.48 1011.48 1011.05 1010.15 1009.68 1009.32 1008.74 1008.03 1007.71 1007.43 1007.46 1007.13 1006.48 1006.44 1006.47 1006.42 1005.80 1005.60 1005.21 1005.25 1004.67 1004.27 1004.65 1004.85 1004.95 1004.92
1019.98 1019.61 1019.19 1018.76 1018.46 1018.14 1017.86 1017.42 1017.07 1016.67 1016.37 1016.19 1016.17 1016.18 1015.77 1013.62 1009.94 1009.31 1010.23 1010.78 1011.03 1010.43 1009.49 1009.05 1008.68 1008.07 1007.39 1007.26 1007.44 1007.39 1006.40 1006.55 1006.72 1006.45 1006.19 1005.89 1005.46 1005.43 1005.30 1005.42 1005.20 1005.01 1004.94 1005.08 1004.90
1019.61 1019.23 1018.90 1018.55 1018.16 1017.71 1017.18 1016.87 1016.58 1016.28 1015.95 1015.77 1015.68 1015.86 1014.67 1011.54 1008.52 1009.18 1009.54 1010.31 1010.00 1010.03 1009.21 1008.71 1008.19 1008.03 1007.38 1007.18 1007.23 1006.59 1006.55 1006.28 1006.41 1006.11 1006.04 1005.94 1005.38 1005.32 1005.10 1005.68 1005.46 1005.41 1005.22 1005.02 1004.87
1019.67 1019.28 1018.84 1018.38 1017.93 1017.42 1016.99 1016.53 1016.11 1015.68 1015.32 1015.26 1015.46 1015.04 1013.61 1009.21 1008.67 1008.69 1009.05 1009.31 1009.49 1009.48 1008.90 1008.74 1008.57 1008.39 1007.42 1007.17 1007.26 1007.02 1006.59 1005.84 1005.50 1005.52 1005.48 1005.72 1005.33 1004.56 1004.59 1004.57 1005.09 1004.60 1004.66 1004.41 1004.44
1019.39 1019.01 1018.60 1018.10 1017.66 1017.14 1016.60 1016.16 1015.69 1015.04 1014.56 1014.57 1015.05 1014.80 1010.98 1008.31 1008.66 1008.84 1008.70 1009.13 1009.55 1009.50 1009.18 1008.89 1009.07 1008.33 1007.74 1007.30 1006.98 1006.35 1005.87 1004.29 1003.21 1004.02 1004.69 1005.47 1003.71 1003.20 1003.47 1003.72 1004.12 1003.78 1003.91 1004.11 1004.36
1019.08 1018.69 1018.17 1017.73 1017.39 1016.87 1016.38 1015.91 1015.25 1014.65 1014.27 1014.19 1014.55 1013.55 1009.18 1008.63 1008.21 1007.92 1008.09 1008.25 1008.96 1009.11 1009.12 1009.19 1008.90 1008.01 1007.69 1006.55 1005.68 1005.25 1003.52 1003.32 1002.86 1003.24 1003.75 1004.42 1002.95 1002.05 1002.45 1002.69 1003.07 1003.01 1002.96 1003.28 1003.63
1018.87 1018.43 1017.98 1017.41 1016.97 1016.50 1016.13 1015.44 1014.73 1014.56 1014.30 1014.15 1013.33 1013.09 1008.37 1006.06 1005.89 1006.40 1007.52 1007.97 1008.13 1008.42 1008.71 1008.76 1008.20 1007.14 1006.28 1005.32 1003.52 1003.12 1003.45 1003.23 1002.85 1002.74 1003.32 1003.05 1002.58 1001.60 1001.61 1001.98 1002.08 1002.19 1002.10 1002.47 1002.56
1018.57 1018.12 1017.62 1017.19 1016.57 1016.13 1015.58 1014.43 1014.02 1013.75 1013.06 1009.95 1008.60 1007.21 1005.45 1005.12 1005.58 1005.93 1006.53 1007.36 1007.35 1007.61 1006.72 1007.24 1006.54 1005.19 1004.64 1004.56 1003.63 1003.62 1003.47 1003.14 1002.75 1002.66 1002.70 1002.15 1001.52 1000.79 1000.82 1001.21 1001.26 1001.27 1001.19 1001.72 1002.01
1018.31 1017.85 1017.20 1016.77 1016.06 1015.58 1015.07 1013.44 1011.39 1011.28 1009.21 1008.20 1007.18 1006.49 1005.67 1005.01 1004.62 1005.09 1005.88 1005.77 1006.12 1005.69 1005.54 1006.37 1004.82 1004.25 1004.25 1004.33 1004.24 1004.04 1003.62 1003.09 1002.67 1002.44 1002.49 1001.47 1000.78 1000.21 1000.21 1000.48 1000.85 1000.68 1000.50 1000.98 1001.15
1018.14 1017.56 1016.95 1016.29 1015.22 1014.80 1013.97 1012.53 1011.31 1011.05 1008.91 1005.66 1004.30 1004.60 1004.51 1005.16 1003.74 1004.28 1004.80 1004.10 1004.41 1004.26 1004.21 1003.57 1003.18 1003.94 1004.25 1004.20 1004.11 1003.77 1003.31 1002.84 1002.43 1002.06 1001.82 1001.36 1000.26 999.72 999.95 1000.13 1000.41 1000.31 1000.16 1000.53 1000.72
1017.21 1016.85 1016.32 1015.38 1014.25 1013.35 1012.02 1011.20 1010.75 1010.80 1007.88 1003.70 1003.38 1002.80 1003.27 1003.88 1003.40 1002.90 1003.76 1003.39 1003.27 1002.75 1003.26 1002.93 1002.78 1003.16 1003.40 1003.41 1003.64 1003.02 1002.94 1002.99 1002.60 1002.16 1000.67 1000.74 999.21 998.86 999.13 999.57 999.89 999.91 1000.00 1000.25 1000.49
1016.49 1016.26 1015.89 1015.97 1014.68 1012.80 1011.07 1010.87 1010.50 1010.14 1006.18 1001.99 1002.03 1001.93 1001.86 1001.87 1000.44 1001.83 1002.83 1002.70 1001.77 1001.97 1002.35 1001.92 1002.24 1002.61 1002.64 1002.74 1003.05 1002.70 1002.52 1002.45 1002.28 1001.74 1001.20 1000.33 1000.16 998.18 998.95 998.82 998.98 999.79 999.74 999.76 1000.18
1016.11 1015.55 1015.09 1014.48 1013.27 1011.74 1011.36 1011.25 1010.35 1008.07 1003.62 1001.10 1000.98 1001.20 1001.37 1001.16 1000.28 1000.44 1001.77 1002.08 1001.75 1001.57 1001.56 1001.51 1001.85 1001.81 1001.85 1002.25 1002.51 1002.53 1002.65 1002.36 1001.98 1001.42 1000.44 999.91 999.48 997.42 997.75 998.47 998.96 999.69 1000.33 1000.61 1001.29
1015.14 1014.56 1014.28 1013.68 1011.23 1010.09 1010.40 1010.86 1008.24 1004.66 1002.06 1000.14 999.87 1000.11 1000.17 1000.03 1000.04 1000.44 1000.70 1000.79 1000.40 1000.59 1000.64 1001.14 1000.82 1001.59 1001.56 1001.58 1001.84 1002.25 1002.10 1001.26 1001.16 1000.43 999.79 999.43 999.61 998.30 998.97 999.34 999.29 999.80 1000.53 1001.41 1002.08
1014.20 1013.21 1011.49 1011.19 1010.66 1011.15 1010.09 1008.86 1005.06 1002.50 1001.15 1000.02 1000.06 1000.01 999.79 999.46 999.63 999.72 1000.09 999.99 1000.22 1000.12 999.76 1000.04 1000.12 1000.52 1000.80 1000.94 1000.60 1001.23 1001.29 1000.18 999.48 999.14 998.85 999.86 999.36 998.42 999.31 1000.20 1000.52 1000.70 1001.06 1001.95 1002.73
1013.85 1011.15 1009.90 1010.21 1010.23 1010.62 1009.54 1005.96 1003.01 1001.51 1000.09 1000.05 1000.26 999.90 1000.53 1001.27 999.80 999.36 999.18 998.88 999.13 999.30 999.28 999.02 999.13 999.29 1000.04 1000.37 1000.57 1000.21 1000.53 1000.48 999.91 999.89 999.40 998.76 999.16 999.63 999.99 1000.39 1000.71 1001.24 1001.93 1002.55 1003.30
1013.70 1011.16 1009.49 1009.44 1010.22 1009.90 1008.33 1004.58 1001.90 1001.05 1000.13 1000.23 1000.13 999.53 1000.06 1001.17 1002.33 999.95 998.72 998.27 998.42 998.93 999.20 998.98 998.97 999.28 999.67 1000.04 1000.17 1000.13 1000.20 1000.66 1000.45 999.94 999.42 998.93 998.64 998.46 999.50 1000.10 1000.81 1001.50 1002.24 1003.21 1004.19
1012.96 1010.43 1009.47 1009.90 1010.05 1009.44 1005.91 1003.12 1001.88 1001.01 1000.53 999.74 1000.14 1000.33 1001.20 1002.13 1002.72 1001.87 998.81 998.25 998.09 998.31 999.08 998.94 998.81 999.51 1000.01 999.65 999.38 1000.45 1000.22 1000.35 1000.29 1000.31 1000.09 999.53 999.42 998.91 999.33 1000.13 1000.82 1001.60 1002.60 1003.73 1004.58
1013.01 1009.96 1008.64 1009.65 1009.06 1007.27 1004.81 1002.99 1002.02 1000.96 1000.28 999.81 1000.05 1000.36 1001.19 1002.41 1002.58 1002.26 999.89 998.52 998.91 998.03 998.41 999.02 999.40 999.57 999.54 1000.16 1000.28 999.49 999.46 999.99 1000.15 1000.79 1000.70 1000.14 1000.15 1000.94 1000.94 1000.90 1001.42 1002.01 1003.09 1004.05 1004.79
1013.18 1010.42 1008.36 1008.87 1007.54 1006.63 1005.45 1003.99 1003.09 1002.33 1001.67 1000.70 1000.14 1000.57 1001.14 1001.72 1003.13 1003.40 1002.02 1000.86 999.91 998.39 998.34 999.15 999.52 999.66 1000.38 1001.00 1001.02 1000.43 1000.39 1000.37 1000.68 1000.92 1001.30 1001.24 1000.93 1001.51 1001.40 1001.52 1002.13 1002.76 1003.86 1005.05 1005.89
1013.18 1010.45 1007.63 1008.21 1007.63 1006.94 1005.69 1004.49 1003.27 1003.09 1002.44 1002.26 1001.83 1001.36 1001.73 1001.82 1002.67 1003.05 1002.97 1002.53 1001.44 1000.26 999.86 999.79 1000.00 999.89 1000.14 1000.72 1001.19 1000.97 1000.84 1001.01 1000.81 1000.62 1000.59 1000.35 1000.35 1001.52 1001.73 1002.28 1003.13 1004.15 1005.04 1005.73 1006.78
1013.18 1010.77 1009.96 1008.94 1007.44 1006.93 1006.11 1005.05 1004.37 1004.19 1003.29 1002.98 1002.18 1001.93 1002.03 1002.72 1002.78 1002.83 1003.51 1003.50 1002.69 1002.20 1001.44 1000.76 1000.47 1001.20 1001.65 1002.55 1002.62 1002.51 1001.48 1001.02 1001.17 1000.95 1000.73 1000.54 1000.69 1001.21 1001.83 1002.62 1003.48 1004.59 1005.59 1006.42 1007.32
1013.54 1012.64 1012.21 1010.91 1008.90 1007.40 1006.15 1005.22 1004.93 1004.74 1004.85 1003.83 1003.63 1003.08 1002.17 1002.90 1003.21 1003.48 1003.76 1003.42 1002.45 1002.92 1002.49 1001.80 1001.26 1002.04 1002.69 1002.84 1002.85 1002.62 1001.76 1001.32 1001.35 1001.28 1001.41 1001.34 1001.38 1001.88 1002.47 1003.31 1003.92 1005.12 1005.98 1006.94 1007.68
1014.25 1013.54 1013.14 1011.40 1009.82 1008.41 1006.53 1006.10 1005.27 1004.90 1004.61 1004.35 1004.17 1003.97 1003.66 1003.99 1003.97 1004.13 1004.13 1003.58 1002.17 1002.36 1002.58 1002.80 1001.91 1002.18 1002.28 1002.65 1002.70 1002.34 1001.48 1001.53 1001.52 1001.58 1001.82 1001.53 1001.60 1001.88 1003.04 1004.02 1004.85 1005.88 1006.76 1007.58 1008.70
Wind_Speed
14 14 14 13 12 12 12 12 12 11 11 11 13 13 14 13 13 17 19 6 5 5 11 10 14 13 10 10 10 11 11 15 20 16 13 7 12 11 6 10 12 2 8 7 8
14 14 14 14 13 13 12 12 12 11 10 10 11 11 13 12 17 21 14 7 8 14 12 15 16 16 12 13 10 15 14 17 13 9 8 11 14 13 10 12 12 10 2 3 10
13 14 14 14 15 14 14 13 13 12 11 10 9 10 11 12 12 6 6 21 17 16 13 10 12 17 15 12 14 13 17 12 7 12 13 16 17 10 18 19 14 9 1 0 10
13 14 14 14 14 15 15 15 15 14 13 11 10 8 9 8 7 5 7 15 18 20 12 12 15 16 15 14 15 11 14 13 11 9 11 16 15 17 17 19 17 6 5 9 6
14 16 15 14 14 14 16 16 16 16 15 13 8 8 9 10 12 8 14 14 16 15 16 15 15 15 15 15 9 15 15 11 14 15 15 17 19 18 17 15 18 17 15 11 9
13 15 16 16 15 15 14 14 15 15 16 14 8 7 10 15 5 7 12 16 14 16 15 14 11 12 10 10 15 8 13 13 13 16 17 19 21 21 19 13 21 20 21 18 15
16 16 17 18 17 18 17 15 15 16 17 14 10 10 11 17 1 6 15 16 13 16 13 13 4 13 7 8 6 8 12 15 16 17 17 14 20 25 20 16 18 22 19 18 18
17 16 18 18 19 19 18 17 17 19 14 9 11 8 11 7 9 7 12 11 9 11 10 12 9 13 12 4 10 12 9 13 8 14 13 14 17 18 21 21 21 24 19 18 14
17 17 18 20 20 19 18 18 21 14 0 11 9 10 8 9 11 18 14 12 15 10 10 9 14 12 10 14 11 10 12 12 5 10 8 14 16 17 16 19 21 21 20 19 15
18 17 18 19 20 19 17 21 13 8 6 6 4 7 10 11 11 19 19 14 13 14 13 13 10 11 13 13 13 12 13 9 9 5 6 15 21 19 11 18 20 20 21 18 16
20 19 18 19 20 18 17 7 5 7 9 13 9 8 1 6 14 17 23 21 14 18 14 17 14 17 19 17 10 4 6 10 10 6 10 14 17 19 13 13 17 19 18 19 21
18 19 23 20 22 22 8 6 9 10 13 24 24 24 15 5 12 18 25 16 18 19 16 12 19 18 11 13 12 11 12 14 12 7 5 11 14 13 10 14 14 18 18 17 17
16 17 23 22 23 10 5 12 11 13 11 16 22 20 17 19 14 23 27 22 22 23 22 19 11 15 14 12 13 14 15 14 13 8 13 12 16 13 11 12 17 19 18 15 18
16 17 18 18 15 8 14 5 9 5 9 12 7 9 18 13 18 20 29 25 17 23 21 20 14 10 16 15 14 15 14 15 16 13 10 7 11 11 9 13 17 19 17 17 19
17 19 17 8 13 7 6 4 5 6 9 8 8 6 11 21 8 27 27 26 21 18 20 17 17 19 15 15 15 13 12 14 17 16 14 14 10 5 5 8 17 12 15 15 15
20 20 17 10 11 16 14 11 9 9 13 5 8 11 14 22 13 22 24 25 21 19 19 21 12 16 20 18 16 10 8 10 13 13 13 16 8 8 5 1 6 9 10 6 3
24 25 19 11 8 3 6 6 10 13 3 11 5 9 17 16 18 20 26 28 20 22 20 19 20 14 12 14 14 13 11 10 12 14 12 4 9 10 7 5 3 10 9 7 6
25 29 8 8 8 15 4 12 19 13 26 7 8 10 16 18 20 21 25 23 25 22 14 17 19 22 16 18 17 17 15 12 14 13 13 11 8 6 7 0 1 4 10 12 11
30 10 7 2 4 7 9 15 19 22 17 10 9 14 9 13 15 21 23 23 25 23 18 18 21 13 21 17 19 12 13 16 17 4 8 9 8 4 6 5 8 11 13 14 14
12 13 6 6 6 9 10 22 23 24 22 8 16 6 10 16 7 18 23 22 23 25 19 9 13 12 19 16 11 16 12 10 10 14 15 15 10 6 12 10 11 13 15 15 14
9 8 8 6 8 6 11 16 19 23 26 19 18 15 2 5 8 11 16 9 23 26 23 14 8 11 13 17 18 9 13 10 7 10 9 12 6 6 3 7 12 13 15 15 14
6 8 9 6 5 6 10 12 13 17 16 23 18 18 14 10 6 8 22 14 7 22 27 23 10 12 18 7 5 8 18 17 10 13 10 11 4 7 2 6 10 13 13 13 11
7 9 1 4 6 6 14 17 12 15 18 9 17 10 13 16 7 10 14 6 3 12 24 15 11 14 11 9 5 11 10 9 6 4 11 10 9 4 3 7 10 12 11 11 11
6 6 4 4 5 8 13 13 13 6 14 15 12 11 6 7 10 12 11 5 6 3 8 19 8 13 11 2 1 14 9 11 13 10 12 14 9 8 8 10 9 11 11 12 9
5 4 6 7 11 16 14 15 13 10 4 4 4 13 10 2 9 6 8 6 2 6 2 6 10 6 5 5 4 7 12 15 15 15 15 14 7 6 9 9 12 12 11 11 9
5 5 6 8 14 16 12 12 10 7 5 3 5 12 12 9 10 2 1 12 5 1 4 3 8 10 13 14 13 15 16 10 11 9 8 9 8 3 0 4 8 9 9 9 9
4 6 3 7 8 14 10 10 15 13 0 7 1 7 6 8 8 8 3 12 12 15 11 10 11 15 11 9 9 14 16 15 14 11 11 13 10 8 6 9 8 8 8 7 6
Wind_Direction
342 339 336 333 331 331 330 326 324 320 318 318 320 320 321 313 294 263 253 255 201 193 211 158 176 186 200 200 217 235 236 237 237 226 246 243 227 250 259 256 251 293 287 351 138
338 334 332 328 326 324 320 315 311 304 305 314 315 314 315 316 293 272 237 220 171 180 187 175 181 182 196 206 201 212 227 240 254 282 249 251 234 242 230 237 235 233 215 266 168
333 330 327 327 326 323 316 311 307 303 303 307 308 307 305 297 279 251 96 203 206 196 203 203 181 189 210 207 208 217 247 235 239 243 259 259 256 247 254 246 246 249 147 220 207
327 326 327 326 324 321 315 311 307 303 299 296 297 292 296 271 279 35 36 168 191 196 185 183 182 196 210 206 212 240 227 250 242 247 245 251 261 254 239 259 247 207 279 295 223
328 330 329 325 322 322 319 312 308 302 295 290 276 270 254 228 248 106 124 155 172 189 187 182 192 207 216 212 209 231 247 228 247 255 254 262 259 261 253 258 263 265 272 271 254
324 326 324 322 319 314 305 296 295 295 290 284 246 242 233 247 73 167 160 170 185 197 204 205 210 211 236 213 211 185 240 242 233 240 245 252 259 255 245 238 256 254 256 258 249
327 325 323 322 319 314 311 307 303 300 293 269 227 215 233 238 121 207 184 188 197 208 219 214 226 195 176 186 212 223 238 227 227 233 235 243 253 258 257 245 252 252 248 251 253
328 324 320 320 320 318 315 311 309 306 300 222 208 213 252 186 233 225 164 174 196 207 233 204 216 219 231 99 192 220 229 243 212 203 218 215 258 245 239 229 231 246 233 242 247
328 327 323 322 322 320 316 312 304 310 253 168 189 226 253 120 206 197 189 167 165 174 187 182 199 217 186 212 204 200 243 208 214 193 223 202 258 257 238 230 234 244 230 232 226
329 326 324 322 322 318 317 303 297 282 175 199 318 231 228 218 175 175 189 157 159 159 151 176 200 205 216 208 216 198 214 216 241 156 223 223 248 270 233 228 229 233 224 222 239
330 327 325 322 318 315 318 295 202 195 222 216 191 254 161 147 139 171 172 174 174 181 183 185 195 204 201 214 258 241 237 256 259 270 255 266 258 266 247 231 230 226 204 219 226
329 322 323 320 314 313 286 244 332 342 287 224 250 236 268 260 184 167 170 173 173 186 179 175 218 203 216 203 228 227 241 250 258 265 289 281 271 266 239 225 225 213 215 204 221
323 321 321 317 307 291 259 267 301 309 271 275 236 231 221 220 218 169 188 192 189 196 191 201 208 209 207 204 220 229 245 252 261 290 282 266 257 239 221 211 210 227 229 218 239
311 312 315 320 285 339 287 264 302 216 273 264 190 243 201 203 225 184 194 194 195 203 194 226 176 187 201 214 216 236 232 248 267 264 273 194 279 185 189 211 218 217 212 225 233
313 315 312 313 295 264 348 293 336 226 277 71 151 130 169 196 181 197 190 201 208 201 205 205 209 210 206 206 211 251 263 256 249 249 259 225 245 129 172 218 210 220 230 223 212
311 310 311 286 250 251 277 292 264 230 248 253 158 187 173 208 205 171 185 207 222 214 210 230 190 218 223 220 232 251 227 238 245 244 235 240 242 222 163 283 173 191 200 206 207
310 306 298 268 252 334 214 213 219 238 196 247 211 191 206 187 193 175 187 196 199 203 204 213 220 215 226 204 200 209 230 217 212 219 238 194 214 278 112 121 69 150 141 157 150
311 307 273 260 241 248 248 222 237 226 222 236 297 258 236 195 205 187 189 195 209 204 197 208 204 211 197 220 207 206 222 241 214 220 218 153 220 231 112 35 98 113 129 136 148
312 308 291 283 261 199 218 220 229 240 245 228 260 245 194 287 230 195 197 205 197 203 215 203 223 181 208 205 220 200 219 249 275 318 275 180 192 188 159 156 154 145 145 143 143
314 304 282 312 186 194 222 241 251 248 259 218 254 283 240 190 265 253 200 203 200 206 211 193 212 193 189 215 212 253 226 204 229 246 227 240 220 270 177 178 161 159 154 147 131
299 301 55 102 175 214 245 246 251 250 268 249 252 253 174 159 210 250 225 186 208 195 206 212 248 167 168 201 196 182 210 235 258 224 245 254 229 56 41 166 172 163 154 150 154
304 291 131 174 251 222 258 289 293 277 250 243 250 270 263 186 165 264 259 192 299 199 200 209 223 195 198 90 323 252 217 199 216 210 238 254 257 100 89 160 172 156 155 158 146
290 293 212 247 278 339 320 309 292 288 281 277 262 275 273 225 202 198 295 32 339 205 196 169 205 205 200 188 183 226 206 240 268 286 218 229 250 71 121 175 184 161 145 142 131
287 303 264 218 306 314 324 309 321 260 258 274 272 270 222 212 196 179 187 326 359 191 14 188 167 212 214 74 30 213 224 219 227 232 237 247 239 151 148 168 161 153 151 134 137
259 268 345 311 324 320 305 294 312 320 266 292 284 271 198 109 211 171 151 287 292 12 80 205 185 198 186 257 249 274 275 234 235 249 254 253 221 258 170 186 167 157 157 147 143
299 334 341 292 300 299 299 309 327 348 291 258 312 293 188 185 163 159 80 173 223 198 9 324 164 167 192 210 211 218 236 225 220 239 240 254 250 225 233 246 159 176 168 163 139
335 295 277 295 310 308 316 328 322 318 25 11 78 342 114 100 105 117 206 267 168 157 171 192 165 176 168 184 202 234 236 227 241 233 250 244 242 246 175 227 185 166 172 149 131